Погода в Сеяхе

Погода в Сеяхе : погода сейчас, прогноз погоды и архив. Всё, что Вы хотите узнать о погоде в Сеяхе!

Хотите узнать прогноз погоды в Сеяхе? Тогда Вам сюда: Погода в Сеяхе

Поиск расширенной информации на нашем сайте:

Другие новости

Новости СМИ2

Главная страница сайта

Новости сайта

02.10.2013

Напоминаем, что на нашем новом сайте вы можете получить высокодетализированные прогнозы погоды по пунктам России, СНГ и мира (включающие важные для авиации метеовеличины, такие как направление и скорость ветра, видимость, явления погоды, количество и форма облачности, нижняя и верхняя граница облачности), а также ознакомиться с разнообразными материалами по авиационной метеорологии и подборкой полезных ссылок на эту тему.

Сайт Метеоцентр.Азия посвящён разработке технологий оптимизации авиаметеорологического обслуживания, включая проектирование и перспективное создание нескольких автоматизированных авиаметеорологических систем:
- система выпуска высокодетальных прогностических карт явлений погоды для нижнего воздушного пространства по России и ближнему зарубежью;
- система верификации прогнозов TAF (выпускаемых синоптиками официальных АМСГ РФ и ближнего зарубежья) и AUTOTAF (выпускаемых сайтом Метеоцентр.Азия) - выявление ошибок, онлайн-сопоставление с фактической погодой METAR, автоматическое внесение коррективов в прогнозы при резком отклонении фактической погоды от прогноза, подсчёт оправдываемости прогнозов по элементам и в целом;
- система обработки, анализа и отображения авиаметеорологической информации для применения провайдерами метеорологической информации.

Рекомендуем: Оптовым покупателям женские халаты оптом от нашего лучшего отечественного Российского производителя

Погода в Сеяхе - сегодня

Время (UTC), дата Ветер
(°,м/с) 
Видим.   Явления Облачность Т
(°С)
Тd
(°С)
f(%) Тe
(°С)
Pmin
(гПа)
dP
(гПа)
Po
(мм)
O2
(г/м3)
Тmin Tmax R s Состояние
почвы
18 23.02.17 010 (С) 20000 м    8/0 верхняя 
[Ci fib]
-26.6 -29.6 76 -35  1009.5  1.8  755  339           
21 23.02.17 340 (С) 20000 м    6/0 верхняя 
[Ci fib]
-28.5 -31.8 73 -36  1013.1  3.6  758  343           
00 24.02.17 320 (СЗ) 20000 м    ясно 
-30.7 -34.2 71 -36  1016.4  3.2  760  347           
03 24.02.17 280 (З) 20000 м    1/0 
-30.3 -33.8 71 -36  1018.2  1.7  762  347  -31         
06 24.02.17 250 (З) 20000 м    4/0 300 м верхняя 
[Ci fib]
-29.7 -33.1 72 -38  1019.2  762  347           
09 24.02.17 260 (З) 20000 м    3/0 верхняя 
[Ci fib]
-26.1 -29 77 -33  1021.3  2.2  764  342           
12 24.02.17 260 (З) 20000 м    3/0 верхняя 
[Ci fib]
-27.4 -30.6 74 -34  1023.1  1.8  765  345           
15 24.02.17 250 (З) 20000 м    ясно 
-27.4 -30.5 75 -34  1024.3  1.1  766  345    -26.1       
18 24.02.17 240 (ЮЗ) 20000 м    ясно 
-26.7 -29.7 76 -33  1025.4  1.1  767  345           
21 24.02.17 230 (ЮЗ) 20000 м    ясно 
-24.2 -26.9 78 -29  1026.2  0.8  768  341           
00 25.02.17 190 (Ю) 20000 м    ясно 
-25.3 -28.2 77 -32  1026.6  0.3  768  343           
03 25.02.17 170 (Ю) 20000 м    ясно 
-29.8 -33.1 73 -38  1027.2  0.6  768  350  -29.8      22  неравномерный
сухой снег
100% 
06 25.02.17 180 (Ю) 20000 м    ясно 330 м 
-26.6 -29.6 76 -33  1027.2  0.1  768  345           
09 25.02.17 170 (Ю) 2000 м  дымка  ясно 
-24.4 -27.2 77 -31  1027.5  0.4  769  342           
12 25.02.17 160 (Ю) 4000 м  дымка  3/0 верхняя 
[Ci fib]
-25.2 -28.1 77 -33  1027.4  0.1  769  343           
15 25.02.17 170 (Ю) 4000 м  позёмок  4/0 верхняя 
[Ci fib]
-24 -26.7 78 -33  1027.1  -0.4  768  341    -23.4       
18 25.02.17 160 (Ю) 7{11}  20000 м  позёмок  3/0 верхняя 
[Ci fib]
-23.9 -26.6 78 -33  1026.4  -0.6  768  341           
21 25.02.17 160 (Ю) 10-14{14}  4000 м  позёмок  3/0 верхняя 
[Ci fib]
-22.3 -24.8 80 -32  1025.5  -0.9  767  338           
00 26.02.17 150 (ЮВ) 10-12{14}  2000 м  позёмок  4/0 верхняя 
[Ci fib]
-22.6 -25.2 79 -33  1024.5  -1  766  338           
03 26.02.17 150 (ЮВ) 11-15{15}  1000 м  метель  3/0 верхняя 
[Ci fib]
-22.6 -25.2 79 -33  1024  -0.5  766  338  -24.4      20  неравномерный
мокрый или
старый снег
100% 
06 26.02.17 150 (ЮВ) 11-14{15}  20000 м  метель  4/0 270 м верхняя 
[Ci fib]
-21.6 -24.1 80 -32  1024.1  0.1  766  337           
09 26.02.17 140 (ЮВ) 9-13{15}  1000 м  метель  8/0 средняя, верхняя 
[Ac trans|Ci fib]
-20.8 -23.1 82 -30  1023.7  -0.4  766  336           
12 26.02.17 140 (ЮВ) 11-14{16}  1000 м  метель  4/0 верхняя 
[Ci fib]
-22 -24.4 81 -33  1022.6  -1.2  765  337           
15 26.02.17 140 (ЮВ) 12-15{16}  1000 м  метель  3/0 верхняя 
[Ci fib]
-21.6 -24 81 -33  1020.9  -1.7  764  336    -20.5       
18 26.02.17 130 (ЮВ) 13-16{16}  1000 м  метель  ясно 
-21.4 -23.8 81 -33  1018.5  -2.4  762  335           
Время (UTC), дата Ветер
(°,м/с) 
Видим.   Явления Облачность Т
(°С)
Тd
(°С)
f(%) Тe
(°С)
Pmin
(гПа)
dP
(гПа)
Po
(мм)
O2
(г/м3)
Тmin Tmax R s Состояние
почвы

Для получения пояснительной информации подведите курсор к названию столбца.

ПОГОДА в Сеяхе - архив

Всё, что Вы хотите узнать о погоде в Сеяхе - удобно и подробно!

Выберите нужную дату (начиная с 1 января 2015* года) и нажмите кнопку "Найти".
Будут отображены архивные сводки погоды по пункту Сеяха, начиная с указанной даты.


Отображать данные в формате CSV (для использования в таблицах Excel)


Внимание! Наш архив погоды предназначен исключительно для личного некоммерческого использования в познавательных целях. Если Вам необходимы официальные справки о состоянии погоды (для производственных, юридических, коммерческих и т.п. целей), обращайтесь в органы Росгидромета.

*Примечание: данная дата относится к архиву по метеостанциям СССР (Россия, СНГ, Балтия).
Архив по метеостанциям Зарубежной Европы и Азии (кроме Китая) хранится 10 дней, по другим регионам земного шара (Китай, Африка, Америка, Австралия, Океания) - 1 день.

Сеяха - район местоположения метеостанции


Название, широта, долгота, высота метеостанции:
Сеяха 70.2°ш. 72.5°д. 16 м над ур. моря [Российская Федерация]

Дополнительная информация

В oтличие oт бoльшинства пoгoдных сайтoв мы публикуем пoдрoбную метеoинфoрмацию в детальнoм прoфессиoнальнoм фoрмате.

Характеристики температуры и влажнoсти вoздуха измеряются на высoте 2 м в тени вдали oт зданий и деревьев.
Скoрoсть ветра измеряется на высoте 10 м (на урoвне рoста челoвека скoрoсть ветра ниже в 1.5-2 раза). Если метеoстанция нахoдится в гoрoде или в лесу, тo скoрoсть ветра занижена на 2-4 м/с пo сравнению с oткрытым местoм. Скoрoсть ветра над акватoриями крупных рек и oзёр, а также на вершинах хoлмoв на 2-5 м/с выше, чем в oбычных услoвиях.
Атмoсфернoе давление в разных тoчках местнoсти мoжет значительнo oтличаться oт давления на метеoстанции, в зависимoсти oт услoвий рельефа (при пoдъёме на 10 м давление пoнижается примернo на 1 мм рт.ст.).